FLOCK 3P-66

Last updated on Feb. 14, 2018, 4:20 p.m. UTC

1 42027U 17008CH  18045.48156246  .00001471  00000-0  63791-4 0  9998
2 42027  97.4664 111.0746 0009947  83.2349 277.0020 15.23920165 55373
UTC
Height (km)
Latitude
Longitude
Inclination
Orbital Period
UTC large
Height (km)
Speed (km/s)
/
Latitude / Longitude
Inclination (degrees)
Orbital Period (minutes)
Azimuth
Elevation
Range (km)
Doppler Factor
iOS Compass Heading
iOS Angle